User: anonymous   Login
Location: Moscow
(55.7500°N, 37.5830°E)
Time: 03:40:02
(UTC+03:00)
Language:

Explorer 7 - Orbit

View from above orbital plane
View from above orbital plane
View from above satellite
View from above satellite

Ground track
Ground track

The orbit data is extracted from the following two-line orbital elements,

1 00022U 59009A   21333.53358169  .00001248  00000-0  11401-3 0  9994
2 00022  50.2822 133.7053 0137819 125.0022 236.3952 14.95905512549692
Epoch (UTC): 29 November 2021 12:48:21
Eccentricity: 0.0137819
inclination: 50.2822°
perigee height: 483 km
apogee height: 675 km
right ascension of ascending node: 133.7053°
argument of perigee: 125.0022°
revolutions per day: 14.95905512
mean anomaly at epoch: 236.3952°
orbit number at epoch: 54969

The dashed part of the orbit path shows where the satellite is in the earth's shadow,  

DLR